| time (UTC) | temp F | wind direction | speed MPH | gust MPH | rain 1hr in | rain 24hr in | rain mn in | humidity % | barometer mb |
| 20260507212814 | 70 | 310 | 2.0 | 3.0 | 0.00 | 0.00 | 0.00 | 36 | 1011.1 |
| 20260507212310 | 71 | 277 | 7.0 | 10.0 | 0.00 | 0.00 | 0.00 | 36 | 1011.2 |
| 20260507211806 | 71 | 309 | 3.0 | 4.0 | 0.00 | 0.00 | 0.00 | 34 | 1011.1 |
| 20260507211303 | 70 | 284 | 2.0 | 2.0 | 0.00 | 0.00 | 0.00 | 35 | 1011.3 |
| 20260507210800 | 71 | 247 | 5.0 | 9.0 | 0.00 | 0.00 | 0.00 | 36 | 1011.2 |
| 20260507210257 | 71 | 299 | 9.0 | 13.0 | 0.00 | 0.00 | 0.00 | 36 | 1011.3 |
| 20260507205753 | 72 | 195 | 6.0 | 9.0 | 0.00 | 0.00 | 0.00 | 35 | 1011.4 |
| 20260507205250 | 70 | 313 | 3.0 | 6.0 | 0.00 | 0.00 | 0.00 | 36 | 1011.3 |
| 20260507204746 | 71 | 223 | 6.0 | 7.0 | 0.00 | 0.00 | 0.00 | 35 | 1011.6 |
| 20260507204245 | 71 | 192 | 7.0 | 9.0 | 0.00 | 0.00 | 0.00 | 34 | 1011.4 |
| 20260507203742 | 70 | 171 | 3.0 | 4.0 | 0.00 | 0.00 | 0.00 | 35 | 1011.7 |
| 20260507203239 | 69 | 202 | 5.0 | 6.0 | 0.00 | 0.00 | 0.00 | 38 | 1011.5 |
| 20260507202735 | 68 | 263 | 7.0 | 9.0 | 0.00 | 0.00 | 0.00 | 38 | 1011.8 |
| 20260507202232 | 68 | 231 | 4.0 | 4.0 | 0.00 | 0.00 | 0.00 | 39 | 1011.7 |
| 20260507201726 | 69 | 235 | 4.0 | 4.0 | 0.00 | 0.00 | 0.00 | 39 | 1011.8 |
| 20260507201224 | 68 | 307 | 3.0 | 6.0 | 0.00 | 0.00 | 0.00 | 39 | 1011.8 |
| 20260507200720 | 68 | 209 | 3.0 | 7.0 | 0.00 | 0.00 | 0.00 | 38 | 1011.8 |
| 20260507200216 | 68 | 228 | 4.0 | 7.0 | 0.00 | 0.00 | 0.00 | 38 | 1012.3 |
| 20260507195713 | 70 | 289 | 2.0 | 3.0 | 0.00 | 0.00 | 0.00 | 38 | 1011.9 |
| 20260507195210 | 69 | 314 | 1.0 | 2.0 | 0.00 | 0.00 | 0.00 | 36 | 1012.1 |
| 20260507194707 | 69 | 228 | 4.0 | 7.0 | 0.00 | 0.00 | 0.00 | 37 | 1012.2 |
| 20260507194202 | 69 | 267 | 7.0 | 8.0 | 0.00 | 0.00 | 0.00 | 38 | 1012.3 |
| 20260507193659 | 70 | 268 | 4.0 | 6.0 | 0.00 | 0.00 | 0.00 | 37 | 1012.4 |
| 20260507193156 | 69 | 308 | 1.0 | 2.0 | 0.00 | 0.00 | 0.00 | 38 | 1012.5 |
| 20260507192652 | 68 | 248 | 2.0 | 3.0 | 0.00 | 0.00 | 0.00 | 39 | 1012.4 |
| 20260507192150 | 69 | 268 | 4.0 | 4.0 | 0.00 | 0.00 | 0.00 | 37 | 1012.5 |
| 20260507191645 | 70 | 304 | 4.0 | 6.0 | 0.00 | 0.00 | 0.00 | 37 | 1012.5 |
| 20260507191142 | 68 | 283 | 3.0 | 3.0 | 0.00 | 0.00 | 0.00 | 41 | 1012.6 |
| 20260507190639 | 67 | 208 | 6.0 | 9.0 | 0.00 | 0.00 | 0.00 | 39 | 1012.7 |
| 20260507190138 | 67 | 214 | 4.0 | 8.0 | 0.00 | 0.00 | 0.00 | 39 | 1012.7 |
| 20260507185636 | 68 | 259 | 4.0 | 6.0 | 0.00 | 0.00 | 0.00 | 36 | 1013.0 |
| 20260507185132 | 67 | 179 | 6.0 | 9.0 | 0.00 | 0.00 | 0.00 | 39 | 1012.8 |
| 20260507184630 | 68 | 266 | 3.0 | 4.0 | 0.00 | 0.00 | 0.00 | 40 | 1012.9 |
| 20260507184128 | 68 | 232 | 3.0 | 3.0 | 0.00 | 0.00 | 0.00 | 39 | 1013.0 |
| 20260507183624 | 67 | 143 | 6.0 | 8.0 | 0.00 | 0.00 | 0.00 | 38 | 1013.1 |
| 20260507183121 | 67 | 293 | 0.0 | 0.0 | 0.00 | 0.00 | 0.00 | 39 | 1013.2 |
| 20260507182617 | 68 | 246 | 3.0 | 4.0 | 0.00 | 0.00 | 0.00 | 40 | 1013.0 |
| 20260507182113 | 69 | 250 | 3.0 | 4.0 | 0.00 | 0.00 | 0.00 | 35 | 1013.2 |
| 20260507181611 | 68 | 271 | 3.0 | 3.0 | 0.00 | 0.00 | 0.00 | 37 | 1013.3 |
| 20260507181107 | 68 | 215 | 3.0 | 4.0 | 0.00 | 0.00 | 0.00 | 41 | 1013.1 |
| 20260507180603 | 69 | 226 | 5.0 | 9.0 | 0.00 | 0.00 | 0.00 | 37 | 1013.4 |
| 20260507180100 | 68 | 3 | 3.0 | 6.0 | 0.00 | 0.00 | 0.00 | 38 | 1013.5 |
| 20260507175556 | 67 | 293 | 4.0 | 7.0 | 0.00 | 0.00 | 0.00 | 39 | 1013.6 |
| 20260507175054 | 67 | 324 | 4.0 | 6.0 | 0.00 | 0.00 | 0.00 | 39 | 1013.6 |
| 20260507174551 | 67 | 259 | 2.0 | 2.0 | 0.00 | 0.00 | 0.00 | 38 | 1013.6 |
| 20260507174049 | 67 | 274 | 6.0 | 10.0 | 0.00 | 0.00 | 0.00 | 39 | 1013.6 |
| 20260507173545 | 66 | 264 | 3.0 | 4.0 | 0.00 | 0.00 | 0.00 | 41 | 1013.9 |
| 20260507173042 | 67 | 208 | 8.0 | 11.0 | 0.00 | 0.00 | 0.00 | 39 | 1014.0 |
| 20260507172538 | 66 | 204 | 7.0 | 9.0 | 0.00 | 0.00 | 0.00 | 42 | 1013.9 |
| 20260507172035 | 66 | 266 | 6.0 | 11.0 | 0.00 | 0.00 | 0.00 | 39 | 1014.0 |
| 20260507171531 | 66 | 217 | 3.0 | 4.0 | 0.00 | 0.00 | 0.00 | 41 | 1014.1 |
| 20260507171028 | 67 | 232 | 8.0 | 11.0 | 0.00 | 0.00 | 0.00 | 40 | 1014.2 |
| 20260507170525 | 67 | 221 | 2.0 | 3.0 | 0.00 | 0.00 | 0.00 | 41 | 1014.1 |
| 20260507170022 | 66 | 241 | 5.0 | 7.0 | 0.00 | 0.00 | 0.00 | 40 | 1014.6 |
| 20260507165517 | 66 | 220 | 8.0 | 10.0 | 0.00 | 0.00 | 0.00 | 40 | 1014.3 |
| 20260507165014 | 66 | 222 | 10.0 | 13.0 | 0.00 | 0.00 | 0.00 | 39 | 1014.7 |
| 20260507164510 | 66 | 293 | 3.0 | 4.0 | 0.00 | 0.00 | 0.00 | 40 | 1014.6 |
| 20260507164008 | 66 | 180 | 6.0 | 7.0 | 0.00 | 0.00 | 0.00 | 40 | 1014.4 |
| 20260507163505 | 65 | 260 | 1.0 | 2.0 | 0.00 | 0.00 | 0.00 | 43 | 1014.7 |
| 20260507163002 | 65 | 99 | 6.0 | 11.0 | 0.00 | 0.00 | 0.00 | 40 | 1014.7 |
| 20260507162457 | 65 | 275 | 6.0 | 8.0 | 0.00 | 0.00 | 0.00 | 40 | 1014.8 |
| 20260507161954 | 65 | 206 | 12.0 | 16.0 | 0.00 | 0.00 | 0.00 | 40 | 1014.8 |
| 20260507161450 | 65 | 261 | 8.0 | 10.0 | 0.00 | 0.00 | 0.00 | 39 | 1014.8 |
| 20260507160948 | 65 | 229 | 0.0 | 1.0 | 0.00 | 0.00 | 0.00 | 42 | 1014.6 |
| 20260507160443 | 64 | 176 | 4.0 | 6.0 | 0.00 | 0.00 | 0.00 | 42 | 1014.9 |
| 20260507155939 | 65 | 210 | 2.0 | 3.0 | 0.00 | 0.00 | 0.00 | 42 | 1015.0 |
| 20260507155436 | 65 | 329 | 4.0 | 7.0 | 0.00 | 0.00 | 0.00 | 41 | 1015.1 |
| 20260507154933 | 64 | 9 | 5.0 | 6.0 | 0.00 | 0.00 | 0.00 | 44 | 1015.2 |
| 20260507154429 | 63 | 260 | 3.0 | 4.0 | 0.00 | 0.00 | 0.00 | 46 | 1015.0 |
| 20260507153927 | 63 | 244 | 4.0 | 7.0 | 0.00 | 0.00 | 0.00 | 44 | 1015.2 |
| 20260507153423 | 63 | 161 | 4.0 | 7.0 | 0.00 | 0.00 | 0.00 | 45 | 1015.4 |
| 20260507152919 | 63 | 184 | 4.0 | 7.0 | 0.00 | 0.00 | 0.00 | 45 | 1015.3 |
| 20260507152416 | 63 | 258 | 5.0 | 7.0 | 0.00 | 0.00 | 0.00 | 45 | 1015.3 |
| 20260507151912 | 63 | 270 | 5.0 | 9.0 | 0.00 | 0.00 | 0.00 | 44 | 1015.1 |
| 20260507151409 | 64 | 246 | 4.0 | 6.0 | 0.00 | 0.00 | 0.00 | 42 | 1015.3 |
| 20260507150905 | 63 | 5 | 1.0 | 1.0 | 0.00 | 0.00 | 0.00 | 45 | 1015.2 |
| 20260507150402 | 62 | 230 | 5.0 | 7.0 | 0.00 | 0.00 | 0.00 | 46 | 1015.3 |
| 20260507145858 | 62 | 301 | 1.0 | 2.0 | 0.00 | 0.00 | 0.00 | 47 | 1015.3 |
| 20260507145354 | 62 | 220 | 6.0 | 6.0 | 0.00 | 0.00 | 0.00 | 46 | 1015.4 |
| 20260507144852 | 61 | 299 | 2.0 | 4.0 | 0.00 | 0.00 | 0.00 | 47 | 1015.3 |
| 20260507144349 | 60 | 145 | 4.0 | 4.0 | 0.00 | 0.00 | 0.00 | 50 | 1015.3 |
| 20260507143845 | 59 | 271 | 1.0 | 1.0 | 0.00 | 0.00 | 0.00 | 51 | 1015.2 |
| 20260507143343 | 60 | 247 | 4.0 | 6.0 | 0.00 | 0.00 | 0.00 | 50 | 1015.2 |
| 20260507142839 | 60 | 316 | 0.0 | 0.0 | 0.00 | 0.00 | 0.00 | 50 | 1015.3 |
| 20260507142335 | 59 | 293 | 2.0 | 2.0 | 0.00 | 0.00 | 0.00 | 53 | 1015.3 |
| 20260507141832 | 59 | 297 | 5.0 | 7.0 | 0.00 | 0.00 | 0.00 | 53 | 1015.4 |
| 20260507141329 | 58 | 271 | 3.0 | 4.0 | 0.00 | 0.00 | 0.00 | 55 | 1015.4 |
| 20260507140825 | 58 | 225 | 2.0 | 2.0 | 0.00 | 0.00 | 0.00 | 54 | 1015.4 |
| 20260507140322 | 57 | 316 | 1.0 | 3.0 | 0.00 | 0.00 | 0.00 | 56 | 1015.5 |
| 20260507135820 | 56 | 255 | 4.0 | 6.0 | 0.00 | 0.00 | 0.00 | 57 | 1015.5 |
| 20260507135317 | 56 | 319 | 2.0 | 2.0 | 0.00 | 0.00 | 0.00 | 58 | 1015.6 |
| 20260507134814 | 56 | 208 | 5.0 | 7.0 | 0.00 | 0.00 | 0.00 | 58 | 1015.7 |
| 20260507134310 | 56 | 283 | 3.0 | 4.0 | 0.00 | 0.00 | 0.00 | 57 | 1015.7 |
| 20260507133805 | 54 | 294 | 1.0 | 2.0 | 0.00 | 0.00 | 0.00 | 59 | 1015.7 |
| 20260507133302 | 54 | 260 | 2.0 | 2.0 | 0.00 | 0.00 | 0.00 | 59 | 1015.8 |
| 20260507132800 | 53 | 349 | 2.0 | 3.0 | 0.00 | 0.00 | 0.00 | 61 | 1015.9 |
| 20260507132256 | 53 | 292 | 1.0 | 2.0 | 0.00 | 0.00 | 0.00 | 59 | 1015.9 |
| 20260507131753 | 52 | 271 | 2.0 | 3.0 | 0.00 | 0.00 | 0.00 | 61 | 1015.7 |
| 20260507131250 | 51 | 288 | 2.0 | 3.0 | 0.00 | 0.00 | 0.00 | 62 | 1015.9 |
| 20260507130747 | 51 | 238 | 3.0 | 6.0 | 0.00 | 0.00 | 0.00 | 62 | 1015.8 |
| 20260507130245 | 50 | 238 | 4.0 | 4.0 | 0.00 | 0.00 | 0.00 | 62 | 1015.9 |
| 20260507125743 | 50 | 290 | 2.0 | 3.0 | 0.00 | 0.00 | 0.00 | 63 | 1016.0 |
| 20260507125240 | 49 | 260 | 2.0 | 2.0 | 0.00 | 0.00 | 0.00 | 64 | 1016.0 |
| 20260507124737 | 48 | 211 | 2.0 | 3.0 | 0.00 | 0.00 | 0.00 | 64 | 1016.1 |
| 20260507124234 | 48 | 245 | 3.0 | 4.0 | 0.00 | 0.00 | 0.00 | 64 | 1016.0 |
| 20260507123732 | 48 | 303 | 2.0 | 3.0 | 0.00 | 0.00 | 0.00 | 64 | 1016.2 |
| 20260507123230 | 47 | 293 | 2.0 | 3.0 | 0.00 | 0.00 | 0.00 | 65 | 1015.9 |
| 20260507122724 | 47 | 226 | 4.0 | 6.0 | 0.00 | 0.00 | 0.00 | 65 | 1016.1 |
| 20260507122221 | 47 | 233 | 3.0 | 3.0 | 0.00 | 0.00 | 0.00 | 66 | 1016.1 |
| 20260507121716 | 46 | 257 | 2.0 | 4.0 | 0.00 | 0.00 | 0.00 | 66 | 1016.0 |
| 20260507121213 | 46 | 276 | 2.0 | 3.0 | 0.00 | 0.00 | 0.00 | 66 | 1016.1 |
| 20260507120709 | 46 | 323 | 2.0 | 4.0 | 0.00 | 0.00 | 0.00 | 66 | 1016.0 |
| 20260507120206 | 45 | 305 | 3.0 | 4.0 | 0.00 | 0.00 | 0.00 | 67 | 1015.9 |
| 20260507115702 | 44 | 239 | 3.0 | 4.0 | 0.00 | 0.00 | 0.00 | 68 | 1015.9 |
| 20260507115158 | 44 | 270 | 2.0 | 2.0 | 0.00 | 0.00 | 0.00 | 68 | 1015.9 |
| 20260507114654 | 44 | 311 | 0.0 | 0.0 | 0.00 | 0.00 | 0.00 | 69 | 1015.8 |
| 20260507114151 | 44 | 299 | 0.0 | 0.0 | 0.00 | 0.00 | 0.00 | 69 | 1015.7 |
| 20260507113649 | 44 | 301 | 0.0 | 0.0 | 0.00 | 0.00 | 0.00 | 69 | 1015.6 |
| 20260507113145 | 44 | 279 | 1.0 | 1.0 | 0.00 | 0.00 | 0.00 | 69 | 1015.6 |
| 20260507112643 | 44 | 295 | 0.0 | 0.0 | 0.00 | 0.00 | 0.00 | 69 | 1015.6 |
| 20260507112140 | 44 | 282 | 1.0 | 1.0 | 0.00 | 0.00 | 0.00 | 69 | 1015.7 |
| 20260507111637 | 44 | 278 | 1.0 | 2.0 | 0.00 | 0.00 | 0.00 | 68 | 1015.4 |
| 20260507111133 | 44 | 283 | 1.0 | 1.0 | 0.00 | 0.00 | 0.00 | 68 | 1015.5 |
| 20260507110630 | 44 | 263 | 2.0 | 3.0 | 0.00 | 0.00 | 0.00 | 68 | 1015.5 |
| 20260507110126 | 44 | 223 | 3.0 | 3.0 | 0.00 | 0.00 | 0.00 | 67 | 1015.7 |
| 20260507105623 | 44 | 232 | 3.0 | 3.0 | 0.00 | 0.00 | 0.00 | 66 | 1015.6 |
| 20260507105119 | 44 | 259 | 2.0 | 2.0 | 0.00 | 0.00 | 0.00 | 66 | 1015.7 |
| 20260507104617 | 44 | 230 | 2.0 | 3.0 | 0.00 | 0.00 | 0.00 | 66 | 1015.8 |
| 20260507104113 | 44 | 282 | 1.0 | 2.0 | 0.00 | 0.00 | 0.00 | 66 | 1015.8 |
| 20260507103609 | 44 | 290 | 0.0 | 1.0 | 0.00 | 0.00 | 0.00 | 66 | 1015.7 |
| 20260507103106 | 44 | 274 | 2.0 | 2.0 | 0.00 | 0.00 | 0.00 | 65 | 1015.8 |
| 20260507102603 | 44 | 279 | 1.0 | 2.0 | 0.00 | 0.00 | 0.00 | 65 | 1015.9 |
| 20260507102059 | 44 | 281 | 1.0 | 1.0 | 0.00 | 0.00 | 0.00 | 65 | 1015.8 |
| 20260507101554 | 44 | 285 | 1.0 | 2.0 | 0.00 | 0.00 | 0.00 | 65 | 1015.8 |
| 20260507101051 | 44 | 256 | 2.0 | 2.0 | 0.00 | 0.00 | 0.00 | 66 | 1016.0 |
| 20260507100548 | 44 | 298 | 1.0 | 1.0 | 0.00 | 0.00 | 0.00 | 66 | 1016.1 |
| 20260507100046 | 44 | 282 | 1.0 | 1.0 | 0.00 | 0.00 | 0.00 | 66 | 1015.9 |
| 20260507095544 | 44 | 304 | 0.0 | 0.0 | 0.00 | 0.00 | 0.00 | 66 | 1016.1 |
| 20260507095040 | 44 | 300 | 0.0 | 1.0 | 0.00 | 0.00 | 0.00 | 66 | 1016.1 |
| 20260507094536 | 44 | 307 | 0.0 | 0.0 | 0.00 | 0.00 | 0.00 | 65 | 1016.0 |
| 20260507094034 | 44 | 287 | 1.0 | 1.0 | 0.00 | 0.00 | 0.00 | 66 | 1016.1 |
| 20260507093531 | 44 | 300 | 0.0 | 0.0 | 0.00 | 0.00 | 0.00 | 66 | 1016.0 |
| 20260507093030 | 44 | 292 | 1.0 | 1.0 | 0.00 | 0.00 | 0.00 | 66 | 1016.1 |
| 20260507092526 | 44 | 287 | 0.0 | 1.0 | 0.00 | 0.00 | 0.00 | 66 | 1015.9 |
| 20260507092023 | 44 | 282 | 1.0 | 1.0 | 0.00 | 0.00 | 0.00 | 65 | 1016.1 |
| 20260507091519 | 44 | 270 | 1.0 | 2.0 | 0.00 | 0.00 | 0.00 | 66 | 1016.1 |
| 20260507091015 | 44 | 288 | 1.0 | 1.0 | 0.00 | 0.00 | 0.00 | 66 | 1015.9 |
| 20260507090511 | 44 | 289 | 1.0 | 1.0 | 0.00 | 0.00 | 0.00 | 65 | 1016.1 |
| 20260507090008 | 44 | 269 | 1.0 | 2.0 | 0.00 | 0.00 | 0.00 | 65 | 1016.0 |
| 20260507085505 | 44 | 295 | 1.0 | 1.0 | 0.00 | 0.00 | 0.00 | 65 | 1016.2 |
| 20260507085002 | 44 | 286 | 1.0 | 1.0 | 0.00 | 0.00 | 0.00 | 65 | 1016.1 |
| 20260507084459 | 45 | 290 | 0.0 | 1.0 | 0.00 | 0.00 | 0.00 | 65 | 1016.3 |
| 20260507083956 | 45 | 295 | 0.0 | 0.0 | 0.00 | 0.00 | 0.00 | 65 | 1016.4 |
| 20260507083452 | 45 | 306 | 0.0 | 0.0 | 0.00 | 0.00 | 0.00 | 64 | 1016.4 |
| 20260507082948 | 45 | 298 | 0.0 | 0.0 | 0.00 | 0.00 | 0.00 | 64 | 1016.6 |
| 20260507082445 | 45 | 295 | 0.0 | 1.0 | 0.00 | 0.00 | 0.00 | 63 | 1016.5 |
| 20260507081941 | 45 | 277 | 1.0 | 2.0 | 0.00 | 0.00 | 0.00 | 63 | 1016.5 |
| 20260507081438 | 45 | 286 | 0.0 | 1.0 | 0.00 | 0.00 | 0.00 | 63 | 1016.4 |
| 20260507080935 | 45 | 283 | 1.0 | 1.0 | 0.00 | 0.00 | 0.00 | 63 | 1016.5 |
| 20260507080431 | 45 | 286 | 1.0 | 1.0 | 0.00 | 0.00 | 0.00 | 63 | 1016.5 |
| 20260507075926 | 45 | 288 | 0.0 | 0.0 | 0.00 | 0.00 | 0.00 | 63 | 1016.4 |
| 20260507075423 | 45 | 288 | 0.0 | 1.0 | 0.00 | 0.00 | 0.00 | 63 | 1016.6 |
| 20260507074919 | 45 | 293 | 0.0 | 1.0 | 0.00 | 0.00 | 0.00 | 63 | 1016.4 |
| 20260507074416 | 45 | 295 | 0.0 | 0.0 | 0.00 | 0.00 | 0.00 | 63 | 1016.5 |
| 20260507073914 | 45 | 286 | 1.0 | 1.0 | 0.00 | 0.00 | 0.00 | 63 | 1016.5 |
| 20260507073410 | 45 | 291 | 0.0 | 0.0 | 0.00 | 0.00 | 0.00 | 63 | 1016.7 |
| 20260507072907 | 46 | 293 | 0.0 | 0.0 | 0.00 | 0.00 | 0.00 | 62 | 1016.5 |
| 20260507072405 | 46 | 297 | 0.0 | 1.0 | 0.00 | 0.00 | 0.00 | 61 | 1016.4 |
| 20260507071902 | 46 | 296 | 0.0 | 0.0 | 0.00 | 0.00 | 0.00 | 60 | 1016.7 |
| 20260507071359 | 47 | 294 | 0.0 | 0.0 | 0.00 | 0.00 | 0.00 | 59 | 1016.7 |
| 20260507070855 | 47 | 293 | 1.0 | 1.0 | 0.00 | 0.00 | 0.00 | 59 | 1016.8 |
| 20260507070353 | 47 | 296 | 0.0 | 0.0 | 0.00 | 0.00 | 0.00 | 57 | 1016.9 |
| 20260507065849 | 47 | 298 | 0.0 | 0.0 | 0.00 | 0.00 | 0.00 | 57 | 1016.9 |
| 20260507065346 | 47 | 300 | 0.0 | 0.0 | 0.00 | 0.00 | 0.00 | 57 | 1016.9 |
| 20260507064843 | 47 | 294 | 0.0 | 0.0 | 0.00 | 0.00 | 0.00 | 58 | 1016.9 |
| 20260507064342 | 47 | 294 | 0.0 | 0.0 | 0.00 | 0.00 | 0.00 | 60 | 1016.9 |
| 20260507063839 | 47 | 294 | 0.0 | 0.0 | 0.00 | 0.00 | 0.00 | 60 | 1016.9 |
| 20260507063336 | 47 | 294 | 0.0 | 0.0 | 0.00 | 0.00 | 0.00 | 60 | 1016.9 |
| 20260507062832 | 47 | 294 | 0.0 | 0.0 | 0.00 | 0.00 | 0.00 | 60 | 1017.2 |
| 20260507062329 | 47 | 294 | 0.0 | 0.0 | 0.00 | 0.00 | 0.00 | 60 | 1017.1 |
| 20260507061828 | 47 | 294 | 0.0 | 0.0 | 0.00 | 0.00 | 0.00 | 60 | 1017.2 |
| 20260507061325 | 47 | 294 | 0.0 | 0.0 | 0.00 | 0.00 | 0.00 | 60 | 1017.2 |
| 20260507060823 | 48 | 294 | 0.0 | 0.0 | 0.00 | 0.00 | 0.00 | 59 | 1017.2 |
| 20260507060320 | 48 | 294 | 0.0 | 0.0 | 0.00 | 0.00 | 0.00 | 59 | 1017.2 |
| 20260507055817 | 48 | 294 | 0.0 | 0.0 | 0.00 | 0.00 | 0.00 | 59 | 1017.4 |
| 20260507055312 | 48 | 294 | 0.0 | 0.0 | 0.00 | 0.00 | 0.00 | 58 | 1017.3 |
| 20260507054808 | 48 | 294 | 0.0 | 0.0 | 0.00 | 0.00 | 0.00 | 57 | 1017.2 |
| 20260507054305 | 48 | 294 | 0.0 | 0.0 | 0.00 | 0.00 | 0.00 | 57 | 1017.1 |
| 20260507053802 | 48 | 295 | 0.0 | 0.0 | 0.00 | 0.00 | 0.00 | 58 | 1017.1 |
| 20260507053300 | 48 | 294 | 0.0 | 0.0 | 0.00 | 0.00 | 0.00 | 58 | 1017.2 |
| 20260507052759 | 48 | 294 | 0.0 | 0.0 | 0.00 | 0.00 | 0.00 | 59 | 1017.3 |
| 20260507052254 | 48 | 294 | 0.0 | 0.0 | 0.00 | 0.00 | 0.00 | 58 | 1017.3 |
| 20260507051753 | 48 | 295 | 0.0 | 0.0 | 0.00 | 0.00 | 0.00 | 57 | 1017.1 |
| 20260507051249 | 48 | 295 | 0.0 | 0.0 | 0.00 | 0.00 | 0.00 | 56 | 1017.3 |
| 20260507050746 | 48 | 295 | 0.0 | 0.0 | 0.00 | 0.00 | 0.00 | 57 | 1017.1 |
| 20260507050243 | 48 | 294 | 0.0 | 0.0 | 0.00 | 0.00 | 0.00 | 57 | 1017.4 |
| 20260507045740 | 48 | 295 | 0.0 | 0.0 | 0.00 | 0.00 | 0.00 | 57 | 1017.2 |
| 20260507045236 | 48 | 295 | 0.0 | 0.0 | 0.00 | 0.00 | 0.00 | 58 | 1017.2 |
| 20260507044733 | 48 | 295 | 0.0 | 0.0 | 0.00 | 0.00 | 0.00 | 57 | 1017.4 |
| 20260507044229 | 48 | 294 | 0.0 | 0.0 | 0.00 | 0.00 | 0.00 | 56 | 1017.3 |
| 20260507043726 | 48 | 317 | 0.0 | 0.0 | 0.00 | 0.00 | 0.00 | 58 | 1017.5 |
| 20260507043223 | 48 | 317 | 0.0 | 0.0 | 0.00 | 0.00 | 0.00 | 56 | 1017.4 |
| 20260507042719 | 48 | 317 | 0.0 | 0.0 | 0.00 | 0.00 | 0.00 | 56 | 1017.5 |
| 20260507042214 | 48 | 317 | 0.0 | 0.0 | 0.00 | 0.00 | 0.00 | 56 | 1017.4 |
| 20260507041712 | 48 | 317 | 0.0 | 0.0 | 0.00 | 0.00 | 0.00 | 56 | 1017.5 |
| 20260507041208 | 48 | 317 | 0.0 | 0.0 | 0.00 | 0.00 | 0.00 | 57 | 1017.4 |
| 20260507040705 | 48 | 317 | 0.0 | 0.0 | 0.00 | 0.00 | 0.00 | 57 | 1017.4 |
| 20260507040201 | 48 | 317 | 0.0 | 0.0 | 0.00 | 0.00 | 0.00 | 56 | 1017.4 |
| 20260507035657 | 48 | 317 | 0.0 | 0.0 | 0.00 | 0.00 | 0.00 | 56 | 1017.5 |
| 20260507035153 | 48 | 317 | 0.0 | 0.0 | 0.00 | 0.00 | 0.00 | 55 | 1017.5 |
| 20260507034650 | 48 | 317 | 0.0 | 0.0 | 0.00 | 0.00 | 0.00 | 56 | 1017.4 |
| 20260507034148 | 48 | 317 | 0.0 | 0.0 | 0.00 | 0.00 | 0.00 | 54 | 1017.4 |
| 20260507033646 | 49 | 317 | 0.0 | 0.0 | 0.00 | 0.00 | 0.00 | 51 | 1017.5 |
| 20260507033143 | 49 | 317 | 0.0 | 0.0 | 0.00 | 0.00 | 0.00 | 51 | 1017.5 |
| 20260507032641 | 48 | 317 | 0.0 | 0.0 | 0.00 | 0.00 | 0.00 | 50 | 1017.5 |
| 20260507032136 | 48 | 317 | 0.0 | 0.0 | 0.00 | 0.00 | 0.00 | 53 | 1017.6 |
| 20260507031633 | 49 | 317 | 0.0 | 0.0 | 0.00 | 0.00 | 0.00 | 53 | 1017.5 |
| 20260507031130 | 50 | 317 | 0.0 | 0.0 | 0.00 | 0.00 | 0.00 | 50 | 1017.3 |
| 20260507030627 | 49 | 317 | 0.0 | 0.0 | 0.00 | 0.00 | 0.00 | 51 | 1017.4 |
| 20260507030125 | 49 | 317 | 0.0 | 0.0 | 0.00 | 0.00 | 0.00 | 49 | 1017.5 |
| 20260507025621 | 49 | 317 | 0.0 | 0.0 | 0.00 | 0.00 | 0.00 | 47 | 1017.5 |
| 20260507025118 | 49 | 317 | 0.0 | 0.0 | 0.00 | 0.00 | 0.00 | 50 | 1017.3 |
| 20260507024616 | 49 | 317 | 0.0 | 0.0 | 0.00 | 0.00 | 0.00 | 51 | 1017.4 |
| 20260507024113 | 49 | 317 | 0.0 | 0.0 | 0.00 | 0.00 | 0.00 | 51 | 1017.3 |
| 20260507023608 | 49 | 317 | 0.0 | 0.0 | 0.00 | 0.00 | 0.00 | 49 | 1017.3 |
| 20260507023106 | 49 | 317 | 0.0 | 0.0 | 0.00 | 0.00 | 0.00 | 47 | 1017.3 |
| 20260507022603 | 50 | 317 | 0.0 | 0.0 | 0.00 | 0.00 | 0.00 | 48 | 1017.0 |
| 20260507022058 | 50 | 317 | 0.0 | 0.0 | 0.00 | 0.00 | 0.00 | 51 | 1017.3 |
| 20260507021555 | 50 | 317 | 0.0 | 0.0 | 0.00 | 0.00 | 0.00 | 47 | 1017.0 |
| 20260507021051 | 51 | 317 | 0.0 | 0.0 | 0.00 | 0.00 | 0.00 | 42 | 1017.1 |
| 20260507020549 | 52 | 317 | 0.0 | 0.0 | 0.00 | 0.00 | 0.00 | 43 | 1017.1 |
| 20260507020045 | 52 | 317 | 0.0 | 0.0 | 0.00 | 0.00 | 0.00 | 39 | 1016.9 |
| 20260507015544 | 52 | 317 | 0.0 | 0.0 | 0.00 | 0.00 | 0.00 | 39 | 1017.3 |
| 20260507015041 | 52 | 317 | 0.0 | 0.0 | 0.00 | 0.00 | 0.00 | 40 | 1017.0 |
| 20260507014537 | 53 | 317 | 0.0 | 0.0 | 0.00 | 0.00 | 0.00 | 40 | 1016.8 |
| 20260507014033 | 53 | 317 | 0.0 | 0.0 | 0.00 | 0.00 | 0.00 | 42 | 1016.9 |
| 20260507013530 | 54 | 317 | 0.0 | 0.0 | 0.00 | 0.00 | 0.00 | 39 | 1016.8 |
| 20260507013027 | 54 | 317 | 0.0 | 0.0 | 0.00 | 0.00 | 0.00 | 40 | 1016.8 |
| 20260507012524 | 54 | 317 | 0.0 | 0.0 | 0.00 | 0.00 | 0.00 | 40 | 1016.7 |
| 20260507012020 | 54 | 317 | 0.0 | 0.0 | 0.00 | 0.00 | 0.00 | 39 | 1016.6 |
| 20260507011518 | 55 | 318 | 0.0 | 0.0 | 0.00 | 0.00 | 0.00 | 38 | 1016.6 |
| 20260507011014 | 55 | 315 | 0.0 | 0.0 | 0.00 | 0.00 | 0.00 | 37 | 1016.6 |
| 20260507010508 | 56 | 315 | 0.0 | 0.0 | 0.00 | 0.00 | 0.00 | 35 | 1016.6 |
| 20260507010005 | 56 | 315 | 0.0 | 0.0 | 0.00 | 0.00 | 0.00 | 34 | 1016.6 |
| 20260507005503 | 57 | 315 | 0.0 | 0.0 | 0.00 | 0.00 | 0.00 | 33 | 1016.8 |
| 20260507004959 | 58 | 316 | 0.0 | 0.0 | 0.00 | 0.00 | 0.00 | 33 | 1016.8 |
| 20260507004456 | 58 | 319 | 0.0 | 0.0 | 0.00 | 0.00 | 0.00 | 31 | 1017.0 |
| 20260507003954 | 58 | 315 | 0.0 | 0.0 | 0.00 | 0.00 | 0.00 | 31 | 1016.7 |
| 20260507003448 | 59 | 320 | 0.0 | 0.0 | 0.00 | 0.00 | 0.00 | 30 | 1016.7 |
| 20260507002944 | 59 | 303 | 0.0 | 1.0 | 0.00 | 0.00 | 0.00 | 30 | 1016.8 |
| 20260507002440 | 59 | 301 | 0.0 | 1.0 | 0.00 | 0.00 | 0.00 | 30 | 1016.7 |
| 20260507001937 | 59 | 322 | 1.0 | 3.0 | 0.00 | 0.00 | 0.00 | 29 | 1016.6 |
| 20260507001434 | 59 | 304 | 0.0 | 1.0 | 0.00 | 0.00 | 0.00 | 29 | 1016.6 |
| 20260507000932 | 59 | 338 | 1.0 | 1.0 | 0.00 | 0.00 | 0.00 | 28 | 1016.6 |
| 20260507000427 | 59 | 306 | 0.0 | 1.0 | 0.00 | 0.00 | 0.00 | 29 | 1016.8 |
| 20260506235923 | 60 | 309 | 0.0 | 0.0 | 0.00 | 0.00 | 0.00 | 27 | 1016.7 |
| 20260506235421 | 60 | 314 | 0.0 | 0.0 | 0.00 | 0.00 | 0.00 | 28 | 1016.7 |
| 20260506234915 | 61 | 322 | 1.0 | 2.0 | 0.00 | 0.00 | 0.00 | 27 | 1016.6 |
| 20260506234414 | 62 | 311 | 0.0 | 1.0 | 0.00 | 0.00 | 0.00 | 26 | 1016.4 |
| 20260506233911 | 62 | 315 | 2.0 | 2.0 | 0.00 | 0.00 | 0.00 | 27 | 1016.5 |
| 20260506233407 | 63 | 326 | 0.0 | 0.0 | 0.00 | 0.00 | 0.00 | 27 | 1016.7 |
| 20260506232904 | 65 | 331 | 1.0 | 2.0 | 0.00 | 0.00 | 0.00 | 26 | 1016.7 |
| 20260506232400 | 66 | 315 | 1.0 | 2.0 | 0.00 | 0.00 | 0.00 | 25 | 1016.7 |
| 20260506231856 | 65 | 330 | 0.0 | 1.0 | 0.00 | 0.00 | 0.00 | 26 | 1016.6 |
| 20260506231354 | 65 | 325 | 1.0 | 1.0 | 0.00 | 0.00 | 0.00 | 26 | 1016.7 |
| 20260506230851 | 65 | 327 | 2.0 | 2.0 | 0.00 | 0.00 | 0.00 | 25 | 1016.7 |
| 20260506230348 | 66 | 332 | 2.0 | 4.0 | 0.00 | 0.00 | 0.00 | 24 | 1016.8 |
| 20260506225844 | 65 | 316 | 0.0 | 1.0 | 0.00 | 0.00 | 0.00 | 25 | 1016.7 |
| 20260506225342 | 67 | 29 | 1.0 | 3.0 | 0.00 | 0.00 | 0.00 | 24 | 1016.9 |
| 20260506224838 | 68 | 326 | 0.0 | 2.0 | 0.00 | 0.00 | 0.00 | 25 | 1016.9 |
| 20260506224335 | 68 | 304 | 0.0 | 0.0 | 0.00 | 0.00 | 0.00 | 25 | 1016.9 |
| 20260506223832 | 66 | 302 | 0.0 | 1.0 | 0.00 | 0.00 | 0.00 | 25 | 1017.1 |
| 20260506223327 | 67 | 312 | 2.0 | 2.0 | 0.00 | 0.00 | 0.00 | 24 | 1017.1 |
| 20260506222825 | 67 | 293 | 2.0 | 2.0 | 0.00 | 0.00 | 0.00 | 25 | 1017.0 |
| 20260506222320 | 67 | 302 | 0.0 | 1.0 | 0.00 | 0.00 | 0.00 | 27 | 1016.9 |
| 20260506221813 | 67 | 344 | 2.0 | 3.0 | 0.00 | 0.00 | 0.00 | 24 | 1017.0 |
| 20260506221310 | 67 | 319 | 1.0 | 2.0 | 0.00 | 0.00 | 0.00 | 24 | 1017.1 |
| 20260506220808 | 67 | 313 | 1.0 | 2.0 | 0.00 | 0.00 | 0.00 | 24 | 1016.9 |
| 20260506220307 | 66 | 321 | 0.0 | 0.0 | 0.00 | 0.00 | 0.00 | 25 | 1016.8 |
| 20260506215804 | 66 | 17 | 1.0 | 2.0 | 0.00 | 0.00 | 0.00 | 25 | 1017.2 |
| 20260506215300 | 66 | 282 | 2.0 | 3.0 | 0.00 | 0.00 | 0.00 | 25 | 1017.0 |
| 20260506214756 | 66 | 296 | 2.0 | 3.0 | 0.00 | 0.00 | 0.00 | 24 | 1017.1 |
| 20260506214253 | 68 | 339 | 4.0 | 8.0 | 0.00 | 0.00 | 0.00 | 25 | 1017.1 |
| 20260506213752 | 69 | 320 | 1.0 | 2.0 | 0.00 | 0.00 | 0.00 | 24 | 1017.1 |